Flag for Austria Weather past 2 weeks in Bad Radkersburg, Styria, Austria

34 °F


Feels Like: 34 °F
Forecast: 27 / 49 °F
Wind: 1 mph from West

Location: Maribor / Slivnica

Current Time: Nov 29, 2015 at 1:25:48 AM

Latest Report: Nov 29, 2015 at 12:30 AM

Visibility: 5 mi

Pressure: 30.09 "Hg

Humidity: 93%

Dew point: 32 °F

Location of Bad RadkersburgLocation

Historic Weather in Bad Radkersburg — Graph


Bad Radkersburg temperature yesterday

Maximum temperature yesterday: 46 °F (at 3:00 PM)
Minimum temperature yesterday: 34 °F (at 3:00 AM)
Average temperature yesterday: 38 °F

Past Weeks' High & Low Weather Summary

High72 °F (Nov 16, 2:00 PM)100% (Nov 14, 1:30 AM)30.36 "Hg (Nov 14, 1:30 AM)
Low27 °F (Nov 25, 3:30 AM)38% (Nov 16, 2:00 PM)29.33 "Hg (Nov 21, 12:30 AM)
Average42 °F82%29.95 "Hg
* Reported Nov 14 12:30 AM — Midnight between Nov 28 and Nov 29, Bad Radkersburg, Weather by CustomWeather, © 2015

Note: Actual official high and low records may vary slightly from our data, if they occured in-between our weather recording intervals... More about our weather records


Bad Radkersburg weather history for previous 24 hours

Time TempWeatherWind HumidityBarometerVisibility
12:00 AM
Sun, Nov 29
34 °FClear.No wind93%30.09 "Hg4 mi
11:00 PM
Sat, Nov 28
34 °FClear.1 mph87%30.07 "HgN/A
10:30 PM34 °FClear.No wind93%30.07 "Hg5 mi
9:30 PM36 °FClear.2 mph87%30.01 "Hg10 mi
9:00 PM36 °FClear.1 mph93%30.01 "Hg10 mi
8:30 PM37 °FClear.2 mph87%29.98 "Hg10 mi
8:00 PM37 °FClear.1 mph87%29.98 "Hg10 mi
7:30 PM37 °FClear.No wind87%29.98 "Hg10 mi
7:00 PM37 °FClear.1 mph87%29.95 "Hg10 mi
6:30 PM37 °FClear.No wind87%29.95 "Hg10 mi
6:00 PM39 °FClear.2 mph81%29.92 "Hg10 mi
5:30 PM41 °FPassing clouds.3 mph70%29.92 "HgN/A
5:00 PM41 °FPassing clouds.5 mph70%29.89 "HgN/A
4:30 PM41 °FPassing clouds.5 mph70%29.89 "HgN/A
4:00 PM43 °FSunny.5 mph66%29.86 "Hg10 mi
3:30 PM46 °FPassing clouds.6 mph62%29.86 "HgN/A
3:00 PM46 °FPassing clouds.6 mph62%29.86 "HgN/A
2:30 PM45 °FPassing clouds.7 mph66%29.86 "HgN/A
2:00 PM45 °FPassing clouds.8 mph66%29.83 "HgN/A
1:30 PM45 °FPassing clouds.8 mph66%29.83 "HgN/A
1:00 PM45 °FPassing clouds.8 mph66%29.83 "HgN/A
12:30 PM43 °FPassing clouds.7 mph71%29.83 "HgN/A
12:00 PM43 °FPassing clouds.7 mph71%29.83 "HgN/A
11:30 AM39 °FPassing clouds.6 mph81%29.86 "Hg5 mi
11:00 AM39 °FPassing clouds.5 mph81%29.86 "Hg4 mi
10:30 AM37 °FPartly sunny.5 mph87%29.86 "Hg4 mi
10:00 AM36 °FFog.3 mph87%29.89 "Hg2 mi
9:30 AM36 °FFog.2 mph87%29.89 "Hg2 mi
9:00 AM36 °FFog.2 mph93%29.89 "Hg2 mi
8:30 AM36 °FFog.2 mph87%29.86 "Hg2 mi
7:30 AM34 °FFog.2 mph93%29.86 "Hg2 mi
7:00 AM36 °FFog.1 mph87%29.86 "Hg2 mi
6:30 AM36 °FFog.2 mph93%29.83 "Hg2 mi
5:30 AM34 °FFog.No wind93%29.83 "Hg2 mi
5:00 AM34 °FFog.1 mph93%29.86 "Hg2 mi
4:30 AM34 °FFog.1 mph93%29.86 "Hg2 mi
4:00 AM34 °FFog.1 mph93%29.86 "Hg2 mi
3:30 AM36 °FClear.1 mph87%29.86 "Hg3 mi
3:00 AM34 °FFog.1 mph93%29.86 "Hg2 mi
2:30 AM36 °FFog.2 mph93%29.89 "Hg2 mi
1:00 AM36 °FFog.1 mph93%29.92 "Hg3 mi
Weather by CustomWeather, © 2015

See weather overviewHow to use our weather pages